Flag for Germany Weather past 2 weeks in Ahaus, North Rhine-Westphalia, Germany

Now
62 °F

Low clouds.


Feels Like: 62 °F
Forecast: 54 / 64 °F
Wind: 5 mph from Southwest

Location: Twenthe

Current Time: Aug 30, 2014 at 6:59:06 PM

Latest Report: Aug 30, 2014 at 6:00 PM


Visibility: 11 mi

Pressure: 29.94 "Hg

Humidity: 94%

Dew point: 60 °F

Location of AhausLocation

Historic Weather in Ahaus — Graph

°F

Ahaus temperature yesterday

Maximum temperature yesterday: 70 °F (at 3:00 PM)
Minimum temperature yesterday: 58 °F (at 7:00 AM)
Average temperature yesterday: 63 °F

Past Weeks' High & Low Weather Summary

 TemperatureHumidityPressure
High72 °F (Aug 28, 3:00 PM)100% (Aug 16, 6:00 AM)30.08 "Hg (Aug 16, 6:00 AM)
Low42 °F (Aug 27, 6:00 AM)46% (Aug 27, 5:00 PM)29.60 "Hg (Aug 18, 8:00 AM)
Average56 °F85%29.91 "Hg
* Reported Aug 15 5:00 PM — Aug 30 5:00 PM, Ahaus, Weather by CustomWeather, © 2014

Note: Actual official high and low records may vary slightly from our data, if they occured in-between our weather recording intervals... More about our weather records

Advertising

Ahaus weather history for previous 24 hours

 ConditionsComfort  
Time TempWeatherWind HumidityBarometerVisibility
5:00 PM
Aug 30
63 °FLow clouds.5 mph95%29.95 "Hg8 mi
4:00 PM62 °FLots of rain. Low clouds.6 mph95%29.96 "Hg3 mi
3:00 PM62 °FDrizzle. Low clouds.6 mph96%29.96 "Hg5 mi
2:00 PM61 °FRain. Low clouds.5 mph96%29.97 "Hg2 mi
1:00 PM61 °FRain. Low clouds.6 mph96%29.97 "Hg4 mi
12:00 PM62 °FRain showers. Overcast.6 mph90%29.97 "Hg7 mi
11:00 AM61 °FOvercast.7 mph91%29.97 "Hg8 mi
10:00 AM60 °FDrizzle. Low clouds.6 mph93%29.96 "Hg8 mi
9:00 AM59 °FRain. Low clouds.5 mph95%29.96 "Hg4 mi
8:00 AM60 °FRain. Overcast.6 mph89%29.96 "Hg7 mi
7:00 AM60 °FOvercast.6 mph86%29.95 "Hg12 mi
6:00 AM60 °FOvercast.6 mph85%29.95 "Hg13 mi
5:00 AM59 °FOvercast.5 mph86%29.96 "Hg13 mi
4:00 AM58 °FOvercast.5 mph88%29.96 "Hg13 mi
3:00 AM59 °FPassing clouds.5 mph89%29.97 "Hg11 mi
2:00 AM59 °FOvercast.5 mph85%29.98 "Hg14 mi
1:00 AM60 °FPassing clouds.5 mph91%29.98 "Hg11 mi
12:00 AM61 °FOvercast.3 mph91%29.98 "Hg10 mi
11:00 PM
Aug 29
62 °FLight freezing rain. Overcast.2 mph86%29.98 "Hg8 mi
9:00 PM62 °FOvercast.3 mph79%29.97 "Hg11 mi
8:00 PM63 °FPartly sunny.3 mph77%29.97 "Hg16 mi
7:00 PM66 °FOvercast.5 mph69%29.96 "Hg16 mi
6:00 PM67 °FOvercast.5 mph64%29.96 "Hg18 mi
Weather by CustomWeather, © 2014

See weather overviewHow to use our weather pages